Torna al catalogo

COSMOS 1275 DEB

AttivoPO
NORAD 18902·DEBRIS·🇷🇺 Russia

Lanciato Jun 4, 1981 da Plesetsk Cosmodrome

Loading…

Prossimi Passaggi (prossime 24 ore)

TLE

AggiornatoSource: Space-Track

Epoca: Sep 13, 2026, 08:40 UTC

1 18902U 81053MB  26256.36147040  .00005728  00000-0  12444-2 0  9992
2 18902  82.9405 225.8794 0010205 309.8890  50.1414 14.57915876678146

Traccia COSMOS 1275 DEB in tempo reale con AllMySat

Download on the App Store